ECHOSTAR 18

Last updated on Wed Sep 09 2026 00:03:01 GMT+0000 (Coordinated Universal Time)

1 41592U 16039B 26251.50419554 -.00000303 00000+0 00000+0 0 9994 2 41592 0.0152 147.9125 0001526 28.2000 291.6037 1.00270860 37468
UTC large
Height (km)
Speed (km/s)
/
Latitude / Longitude
Inclination (degrees)
Orbital Period (minutes)
Azimuth
Elevation
Range (km)
Doppler Factor

Next 0 passes for location: London (51.5072 / 0.1276)

No passes found over London.
ECHOSTAR 18